Regional Weather Roundup
Issued by NWS

Home | Current Version | Previous Version | Text Only | Print | Product List | Glossary Off
Versions: 1 2 3 4 5 6 7 8 9 10 11 12 13 14 15 16 17 18 19 20 21 22 23 24 25 26 27 28 29 30 31 32 33 34 35 36 37 38 39 40 41 42 43 44 45 46 47 48 49 50

000
ASUS43 KLOT 280804
RWRIL

ILLINOIS REGIONAL WEATHER ROUNDUP
NATIONAL WEATHER SERVICE CHICAGO/ROMEOVILLE IL
300 AM CDT FRI JUL 28 2017

NOTE: "FAIR" INDICATES FEW OR NO CLOUDS BELOW 12,000 FEET WITH NO
SIGNIFICANT WEATHER AND/OR OBSTRUCTIONS TO VISIBILITY.

* THESE STATIONS ARE NOT UNDER NWS QUALITY CONTROL. THEY ALSO MAY NOT
  REPORT WEATHER SUCH AS PRECIPITATION OR FOG.

ILZ001-002-007-009-015-016-024-280900-
NORTHWEST ILLINOIS

CITY           SKY/WX    TMP DP  RH WIND       PRES   REMARKS
MOLINE         CLEAR     68  59  73 CALM      29.97F
STERLING*      CLEAR     64  58  80 NE8       29.98F
SAVANNA*       CLEAR     64  57  79 N3        29.99F
$$

ILZ003-004-008-010-011-017-018-280900-
NORTH CENTRAL ILLINOIS

CITY           SKY/WX    TMP DP  RH WIND       PRES   REMARKS
ROCKFORD       CLEAR     65  56  72 N9        29.99S
FREEPORT*      PTCLDY    60  56  88 CALM      30.01F
ROCHELLE*      CLEAR     63  57  81 NE8       29.98S
DE KALB*       CLEAR     62  58  88 N7        29.98S
PERU*          CLEAR     61  56  85 N6        29.96R
$$

ILZ005-006-012>014-019>023-280900-
NORTHEAST ILLINOIS

CITY           SKY/WX    TMP DP  RH WIND       PRES   REMARKS
CHICAGO-OHARE  PTCLDY    69  62  78 N10       29.94S
CHICAGO-MIDWAY PTCLDY    71  65  81 N12       29.93S
AURORA         CLEAR     65  61  87 N9        29.96R
LANSING*       CLEAR     72  65  78 N7        29.91F
JOLIET*        MOCLDY    69  64  82 N8        29.93S
WAUKEGAN       CLEAR     68  63  84 N12G17    29.96S
DUPAGE AIRPORT CLEAR     63  61  93 N8        29.95S
WHEELING       CLEAR     68  65  90 N9        29.97R
MORRIS*        MOCLDY    62  59  90 CALM      29.92S
ROMEOVILLE*    PTCLDY    67  61  80 NE10      29.93S
$$

LMZ740>746-280900-
SOUTHERN LAKE MICHIGAN

STATION/POSITION SKY/WX   TEMP    WIND        PRES    VSBY  WAVE
                          AIR SEA DIR/SP/G                  HT/PER
                          (F)     (DEG/KT/KT) (MB)    (MI)  (FT/S)
SOUTHERN BUOY              71 71   30/ 14/ 16 1014.0          4/ 6
WILMETTE HARBOR            71 71   10/ 14/ 17   N/A           5/ 6
HARRISON CRIB              72     360/ 15/ 16   N/A
BURNHAM HARBOR             70                   N/A
CALUMET HARBOR             73     350/  7/  8 1013.0R
BURNS HARBOR               74      50/ 15/ 17 1013.2S
MICHIGAN CITY              73      40/ 12/ 13   N/A
MICHIGAN CITY 6N           73 74   60/ 12/ 17   N/A           4/ 6
ST. JOSEPH                 71 71   80/ 10/ 14 1013.0R         3/ 6
$$

ILZ025>027-034>036-040-047-049-050-058-095>099-280900-
WEST-CENTRAL ILLINOIS

CITY           SKY/WX    TMP DP  RH WIND       PRES   REMARKS
QUINCY         CLEAR     69  65  86 NE7       29.93S
GALESBURG*     PTCLDY    59  56  89 N3        29.98R
MACOMB*        CLEAR     63  59  87 NE6       29.97S
JACKSONVILLE*  PTCLDY    69  63  80 NE6       29.91F
PITTSFIELD*    CLOUDY    73  64  74 NE6       29.93S
$$

ILZ028>032-037-038-041>044-048-051>054-059>061-280900-
CENTRAL ILLINOIS

CITY           SKY/WX    TMP DP  RH WIND       PRES   REMARKS
PONTIAC        CLEAR     63  62  98 N5        29.93S
BLOOMINGTON    CLEAR     66  59  78 N8        29.93F
DECATUR        CLEAR     68  64  87 N7        29.90S
PEORIA         CLEAR     65  58  78 N3        29.94S
LACON*         CLEAR     62  58  87 N3        29.94S
LINCOLN*       MOCLDY    68  63  84 N5        29.92S
SPRINGFIELD    CLOUDY    71  64  78 N8        29.91F
TAYLORVILLE    CLOUDY    68  68  99 N5        29.90F
$$

ILZ033-039-045-046-055>057-062-063-280900-
EAST-CENTRAL ILLINOIS

CITY           SKY/WX    TMP DP  RH WIND       PRES   REMARKS
CHAMPAIGN      PTCLDY    67  63  87 N9        29.89F
RANTOUL*       CLOUDY    69  65  86 N7        29.89F
MATTOON        MOCLDY    68  68 100 N8        29.87F
PARIS*         PTCLDY    67  67  99 N5        29.87F
$$

ILZ079-100>102-280900-
SOUTHWEST ILLINOIS

CITY           SKY/WX    TMP DP  RH WIND       PRES   REMARKS
ALTON          CLOUDY    72  71  97 N7        29.88S
BELLEVILLE     MOCLDY    75  73  95 N7        29.86S
CAHOKIA*       CLOUDY    77  74  90 N9        29.86S
SPARTA*        CLOUDY    74  73  97 NW5       29.86S
$$

ILZ064>066-069>071-074>076-080>082-084>086-088>090-092>094-280900-
SOUTH-CENTRAL ILLINOIS

CITY           SKY/WX    TMP DP  RH WIND       PRES   REMARKS
CARBONDALE     CLOUDY    76  76 100 W3        29.83F
CAIRO*         CLOUDY    78  75  92 SW6       29.83S
EFFINGHAM*     MOCLDY    71  71 100 N5        29.88S
MARION         CLOUDY    77  77 100 CALM      29.84F
MT. VERNON     CLOUDY    74  74 100 NE3       29.84F
CENTRALIA*     CLOUDY    76  76  99 N5        29.84S
SALEM*         CLOUDY    76  74  93 NE7       29.85S FOG
METROPOLIS*    CLOUDY    78  76  94 SW6       29.84S HX  82
$$

ILZ067-068-072-073-078-083-087-091-280900-
SOUTHEAST ILLINOIS

CITY           SKY/WX    TMP DP  RH WIND       PRES   REMARKS
LAWRENCEVILLE  CLOUDY    76  75  97 N6        29.83S
FLORA*         CLOUDY    77  75  93 N9        29.85S
FAIRFIELD*     CLOUDY    75  75 100 CALM      29.83S
HARRISBURG*    CLOUDY    76  75  99 CALM      29.84S
ROBINSON*      CLOUDY    72  72  99 N8        29.84F FOG
CARMI*         RAIN      74  73  99 W6        29.84R
$$

ABBREVIATIONS USED IN REMARKS
   TC - TEMPERATURE IN CELSIUS
  WCI - WIND CHILL INDEX
   HX - HEAT INDEX
  VSB - VISIBILITY
$$





USA.gov is the U.S. government's official web portal to all federal, state and local government web resources and services.